Flag for Germany Weather past 2 weeks in Laatzen, Lower Saxony, Germany

Now
57 °F

Sprinkles. Partly sunny.


Feels Like: 56 °F
Forecast: 48 / 63 °F
Wind: 5 mph from West

Location: Hannover

Current Time: Aug 23, 2014 at 5:25:35 PM

Latest Report: Aug 23, 2014 at 5:00 PM


Visibility: 25 mi

Pressure: 29.91 "Hg

Humidity: 85%

Dew point: 52 °F

Location of LaatzenLocation

Historic Weather in Laatzen — Graph

°F

Laatzen temperature yesterday

Maximum temperature yesterday: 65 °F (at 3:00 PM)
Minimum temperature yesterday: 54 °F (at 12:00 AM)
Average temperature yesterday: 58 °F

Past Weeks' High & Low Weather Summary

 TemperatureHumidityPressure
High77 °F (Aug 8, 4:00 PM)97% (Aug 16, 4:00 AM)30.02 "Hg (Aug 16, 4:00 AM)
Low49 °F (Aug 20, 6:00 AM)39% (Aug 11, 7:00 PM)29.60 "Hg (Aug 18, 2:00 PM)
Average61 °F76%29.83 "Hg
* Reported Aug 8 4:00 PM — Aug 23 4:00 PM, Laatzen, Weather by CustomWeather, © 2014

Note: Actual official high and low records may vary slightly from our data, if they occured in-between our weather recording intervals... More about our weather records

Advertising

Laatzen weather history for previous 24 hours

 ConditionsComfort  
Time TempWeatherWind HumidityBarometerVisibility
4:00 PM
Aug 23
55 °FSprinkles. Overcast.8 mph86%29.90 "Hg8 mi
3:00 PM63 °FPartly sunny.5 mph57%29.88 "Hg25 mi
2:00 PM62 °FPartly sunny.5 mph65%29.89 "Hg25 mi
1:00 PM60 °FPartly sunny.6 mph65%29.90 "Hg25 mi
12:00 PM61 °FPartly sunny.6 mph67%29.90 "Hg25 mi
11:00 AM60 °FPartly sunny.5 mph70%29.90 "Hg25 mi
10:00 AM57 °FScattered clouds.5 mph82%29.90 "Hg19 mi
9:00 AM55 °FScattered clouds.3 mph88%29.90 "Hg12 mi
8:00 AM53 °FScattered clouds.5 mph93%29.89 "Hg7 mi
7:00 AM52 °FPartly sunny.2 mph95%29.88 "Hg5 mi
6:00 AM53 °FPassing clouds.3 mph94%29.87 "Hg5 mi
4:00 AM53 °FOvercast.1 mph96%29.87 "Hg6 mi
3:00 AM51 °FPassing clouds.2 mph95%29.87 "Hg6 mi
2:00 AM52 °FPassing clouds.1 mph95%29.87 "Hg9 mi
1:00 AM52 °FPassing clouds.2 mph94%29.87 "Hg12 mi
12:00 AM53 °FPassing clouds.2 mph93%29.87 "Hg16 mi
11:00 PM
Aug 22
54 °FPassing clouds.3 mph91%29.86 "Hg19 mi
10:00 PM55 °FOvercast.5 mph89%29.86 "Hg19 mi
9:00 PM56 °FLight rain. Overcast.5 mph87%29.87 "Hg12 mi
8:00 PM58 °FLight rain. Overcast.5 mph81%29.85 "Hg12 mi
7:00 PM60 °FLight rain. Overcast.6 mph71%29.84 "Hg12 mi
6:00 PM63 °FOvercast.5 mph61%29.84 "Hg22 mi
5:00 PM64 °FOvercast.5 mph52%29.83 "Hg22 mi
Weather by CustomWeather, © 2014

See weather overviewHow to use our weather pages